Time,TemperatureF,DewpointF,PressureIn,WindDirection,WindDirectionDegrees,WindSpeedMPH,WindSpeedGustMPH,Humidity,HourlyPrecipIn,Conditions,Clouds,dailyrainin,SolarRadiationWatts/m^2,SoftwareType,DateUTC
2013-09-08 00:00:00,74.7,70.2,29.87,South,188,3.0,4.0,86,0.00,,,0.00,0,Wunderground v.1.15,2013-09-08 05:00:00,
2013-09-08 00:05:00,74.6,70.1,29.88,South,188,3.0,4.0,86,0.00,,,0.00,0,Wunderground v.1.15,2013-09-08 05:05:00,
2013-09-08 00:10:00,74.6,70.8,29.87,South,188,4.0,5.0,88,0.55,,,0.03,0,Wunderground v.1.15,2013-09-08 05:10:00,
2013-09-08 00:15:00,74.2,70.7,29.87,South,188,4.0,6.0,89,0.44,,,0.05,0,Wunderground v.1.15,2013-09-08 05:15:00,
2013-09-08 00:25:00,73.8,70.0,29.86,South,187,6.0,9.0,88,0.11,,,0.13,0,Wunderground v.1.15,2013-09-08 05:25:00,
2013-09-08 00:30:00,73.9,69.8,29.86,South,187,4.0,5.0,87,0.06,,,0.13,0,Wunderground v.1.15,2013-09-08 05:30:00,
2013-09-08 00:35:00,74.2,68.7,29.86,South,185,4.0,5.0,83,0.04,,,0.13,0,Wunderground v.1.15,2013-09-08 05:35:00,
2013-09-08 00:40:00,75.0,69.1,29.87,South,182,5.0,5.0,82,0.00,,,0.13,0,Wunderground v.1.15,2013-09-08 05:40:00,
2013-09-08 00:45:00,75.5,70.0,29.87,South,182,4.0,6.0,83,0.00,,,0.13,0,Wunderground v.1.15,2013-09-08 05:45:00,
2013-09-08 00:50:00,75.4,69.9,29.86,South,182,4.0,4.0,83,0.00,,,0.13,0,Wunderground v.1.15,2013-09-08 05:50:00,
2013-09-08 01:00:00,75.1,69.9,29.86,South,182,4.0,4.0,84,0.00,,,0.13,0,Wunderground v.1.15,2013-09-08 06:00:00,
2013-09-08 01:05:00,74.9,70.1,29.86,South,182,4.0,4.0,85,0.00,,,0.13,0,Wunderground v.1.15,2013-09-08 06:05:00,
2013-09-08 01:10:00,74.8,70.0,29.86,South,182,4.0,4.0,85,0.00,,,0.13,0,Wunderground v.1.15,2013-09-08 06:10:00,
2013-09-08 01:15:00,74.6,69.8,29.86,South,182,4.0,4.0,85,0.00,,,0.13,0,Wunderground v.1.15,2013-09-08 06:15:00,
2013-09-08 01:20:00,74.5,70.0,29.86,South,182,4.0,4.0,86,0.00,,,0.13,0,Wunderground v.1.15,2013-09-08 06:20:00,
2013-09-08 01:30:00,74.4,69.9,29.86,South,182,3.0,4.0,86,0.00,,,0.13,0,Wunderground v.1.15,2013-09-08 06:30:00,
2013-09-08 01:35:00,74.4,69.9,29.86,South,182,3.0,4.0,86,0.00,,,0.13,0,Wunderground v.1.15,2013-09-08 06:35:00,
2013-09-08 01:40:00,74.4,69.9,29.85,South,182,4.0,4.0,86,0.00,,,0.13,0,Wunderground v.1.15,2013-09-08 06:40:00,
2013-09-08 01:45:00,74.4,69.6,29.85,South,182,3.0,5.0,85,0.00,,,0.13,0,Wunderground v.1.15,2013-09-08 06:45:00,
2013-09-08 01:50:00,74.4,69.6,29.86,South,182,3.0,3.0,85,0.00,,,0.13,0,Wunderground v.1.15,2013-09-08 06:50:00,
2013-09-08 01:55:00,74.4,69.6,29.86,South,182,3.0,3.0,85,0.00,,,0.13,0,Wunderground v.1.15,2013-09-08 06:55:00,
2013-09-08 02:05:00,74.7,69.5,29.85,South,175,4.0,6.0,84,0.00,,,0.13,0,Wunderground v.1.15,2013-09-08 07:05:00,
2013-09-08 02:10:00,74.8,69.6,29.85,South,174,5.0,5.0,84,0.00,,,0.13,0,Wunderground v.1.15,2013-09-08 07:10:00,
2013-09-08 02:15:00,74.8,70.0,29.85,South,173,5.0,6.0,85,0.00,,,0.13,0,Wunderground v.1.15,2013-09-08 07:15:00,
2013-09-08 02:20:00,74.7,69.5,29.85,South,173,4.0,4.0,84,0.00,,,0.13,0,Wunderground v.1.15,2013-09-08 07:20:00,
2013-09-08 02:25:00,74.7,69.5,29.85,South,173,4.0,4.0,84,0.00,,,0.13,0,Wunderground v.1.15,2013-09-08 07:25:00,
2013-09-08 02:35:00,74.9,69.0,29.85,South,171,4.0,5.0,82,0.00,,,0.13,0,Wunderground v.1.15,2013-09-08 07:35:00,
2013-09-08 02:40:00,75.2,69.3,29.85,South,171,5.0,7.0,82,0.00,,,0.13,0,Wunderground v.1.15,2013-09-08 07:40:00,
2013-09-08 02:45:00,75.4,69.5,29.84,South,171,4.0,7.0,82,0.00,,,0.13,0,Wunderground v.1.15,2013-09-08 07:45:00,
2013-09-08 02:50:00,75.4,69.5,29.84,South,171,4.0,4.0,82,0.00,,,0.13,0,Wunderground v.1.15,2013-09-08 07:50:00,
2013-09-08 02:55:00,75.3,69.8,29.84,South,169,4.0,4.0,83,0.00,,,0.13,0,Wunderground v.1.15,2013-09-08 07:55:00,
2013-09-08 03:00:00,74.9,69.7,29.85,SSE,156,4.0,4.0,84,0.00,,,0.13,0,Wunderground v.1.15,2013-09-08 08:00:00,
2013-09-08 03:05:00,74.4,69.6,29.85,SE,135,4.0,6.0,85,0.00,,,0.13,0,Wunderground v.1.15,2013-09-08 08:05:00,
2013-09-08 03:10:00,74.1,69.6,29.84,East,88,5.0,5.0,86,0.00,,,0.13,0,Wunderground v.1.15,2013-09-08 08:10:00,
2013-09-08 03:15:00,73.9,69.4,29.83,East,89,4.0,5.0,86,0.00,,,0.13,0,Wunderground v.1.15,2013-09-08 08:15:00,
2013-09-08 03:20:00,73.8,69.3,29.83,East,89,3.0,3.0,86,0.00,,,0.13,0,Wunderground v.1.15,2013-09-08 08:20:00,
2013-09-08 03:25:00,73.8,69.3,29.84,East,89,3.0,3.0,86,0.00,,,0.13,0,Wunderground v.1.15,2013-09-08 08:25:00,
2013-09-08 03:30:00,73.7,69.6,29.86,NNW,336,2.0,3.0,87,0.00,,,0.13,0,Wunderground v.1.15,2013-09-08 08:30:00,
2013-09-08 03:40:00,73.8,69.7,29.89,North,5,5.0,5.0,87,0.00,,,0.14,0,Wunderground v.1.15,2013-09-08 08:40:00,
2013-09-08 03:45:00,74.1,70.6,29.89,East,89,5.0,12.0,89,0.10,,,0.15,0,Wunderground v.1.15,2013-09-08 08:45:00,
2013-09-08 03:50:00,73.7,70.6,29.88,ENE,68,7.0,7.0,90,1.33,,,0.19,0,Wunderground v.1.15,2013-09-08 08:50:00,
2013-09-08 03:55:00,73.2,70.7,29.90,ENE,73,8.0,11.0,92,0.47,,,0.25,0,Wunderground v.1.15,2013-09-08 08:55:00,
2013-09-08 04:00:00,72.7,70.6,29.89,East,99,8.0,10.0,93,3.22,,,0.43,0,Wunderground v.1.15,2013-09-08 09:00:00,
2013-09-08 04:10:00,72.1,70.3,29.89,ENE,78,7.0,7.0,94,0.16,,,0.54,0,Wunderground v.1.15,2013-09-08 09:10:00,
2013-09-08 04:15:00,72.0,70.5,29.90,NE,51,5.0,7.0,95,0.29,,,0.56,0,Wunderground v.1.15,2013-09-08 09:15:00,
2013-09-08 04:20:00,72.1,70.6,29.90,NE,55,3.0,3.0,95,1.92,,,0.70,0,Wunderground v.1.15,2013-09-08 09:20:00,
2013-09-08 04:25:00,72.0,70.5,29.92,ENE,65,3.0,7.0,95,2.54,,,0.78,0,Wunderground v.1.15,2013-09-08 09:25:00,
2013-09-08 04:30:00,71.9,70.4,29.91,East,101,6.0,11.0,95,1.95,,,0.99,0,Wunderground v.1.15,2013-09-08 09:30:00,
2013-09-08 04:35:00,71.6,70.1,29.92,East,98,10.0,14.0,95,0.66,,,1.12,0,Wunderground v.1.15,2013-09-08 09:35:00,
2013-09-08 04:45:00,70.9,69.4,29.88,SE,127,14.0,16.0,95,0.55,,,1.40,0,Wunderground v.1.15,2013-09-08 09:45:00,
2013-09-08 04:50:00,70.6,69.4,29.88,ESE,113,16.0,16.0,96,0.17,,,1.41,0,Wunderground v.1.15,2013-09-08 09:50:00,
2013-09-08 04:55:00,70.7,69.5,29.88,SE,128,14.0,16.0,96,0.09,,,1.41,0,Wunderground v.1.15,2013-09-08 09:55:00,
2013-09-08 05:00:00,71.0,70.1,29.88,ESE,117,13.0,16.0,97,0.46,,,1.45,0,Wunderground v.1.15,2013-09-08 10:00:00,
2013-09-08 05:10:00,71.3,70.1,29.87,SE,127,14.0,14.0,96,0.12,,,1.49,0,Wunderground v.1.15,2013-09-08 10:10:00,
2013-09-08 05:15:00,71.2,70.0,29.88,SE,130,13.0,14.0,96,0.06,,,1.49,0,Wunderground v.1.15,2013-09-08 10:15:00,
2013-09-08 05:20:00,71.0,69.8,29.89,ESE,103,10.0,10.0,96,0.04,,,1.49,0,Wunderground v.1.15,2013-09-08 10:20:00,
2013-09-08 05:25:00,71.1,69.9,29.91,ENE,73,7.0,10.0,96,0.00,,,1.49,0,Wunderground v.1.15,2013-09-08 10:25:00,
2013-09-08 05:30:00,70.5,69.0,29.91,East,100,5.0,10.0,95,0.00,,,1.49,0,Wunderground v.1.15,2013-09-08 10:30:00,
2013-09-08 05:35:00,70.4,69.2,29.91,ESE,103,8.0,12.0,96,0.00,,,1.49,0,Wunderground v.1.15,2013-09-08 10:35:00,
2013-09-08 05:40:00,70.5,69.0,29.90,ESE,109,11.0,15.0,95,0.00,,,1.50,0,Wunderground v.1.15,2013-09-08 10:40:00,
2013-09-08 05:50:00,70.6,68.8,29.91,ENE,78,6.0,6.0,94,0.05,,,1.51,0,Wunderground v.1.15,2013-09-08 10:50:00,
2013-09-08 05:55:00,70.5,68.7,29.91,East,98,5.0,8.0,94,0.13,,,1.52,0,Wunderground v.1.15,2013-09-08 10:55:00,
2013-09-08 06:00:00,70.4,68.3,29.90,SSE,148,6.0,11.0,93,0.48,,,1.56,0,Wunderground v.1.15,2013-09-08 11:00:00,
2013-09-08 06:10:00,70.8,68.7,29.88,SSE,163,9.0,9.0,93,0.18,,,1.60,0,Wunderground v.1.15,2013-09-08 11:10:00,
2013-09-08 06:15:00,71.1,68.7,29.88,South,175,7.0,9.0,92,0.10,,,1.60,0,Wunderground v.1.15,2013-09-08 11:15:00,
2013-09-08 06:20:00,71.1,69.0,29.88,South,187,5.0,5.0,93,0.05,,,1.60,0,Wunderground v.1.15,2013-09-08 11:20:00,
2013-09-08 06:30:00,70.8,68.4,29.88,South,175,8.0,9.0,92,0.00,,,1.60,0,Wunderground v.1.15,2013-09-08 11:30:00,
2013-09-08 06:35:00,70.6,68.2,29.88,SSE,161,10.0,10.0,92,0.00,,,1.61,0,Wunderground v.1.15,2013-09-08 11:35:00,
2013-09-08 06:40:00,70.4,68.0,29.87,South,172,10.0,10.0,92,0.00,,,1.61,0,Wunderground v.1.15,2013-09-08 11:40:00,
2013-09-08 06:45:00,70.3,68.2,29.86,SSE,161,9.0,10.0,93,0.00,,,1.61,7,Wunderground v.1.15,2013-09-08 11:45:00,
2013-09-08 06:50:00,70.3,68.2,29.87,SSE,164,9.0,9.0,93,0.00,,,1.61,12,Wunderground v.1.15,2013-09-08 11:50:00,
2013-09-08 06:55:00,70.4,68.6,29.87,South,174,7.0,9.0,94,0.00,,,1.61,7,Wunderground v.1.15,2013-09-08 11:55:00,
2013-09-08 07:00:00,70.5,68.7,29.88,SSE,167,5.0,5.0,94,0.00,,,1.61,5,Wunderground v.1.15,2013-09-08 12:00:00,
2013-09-08 07:10:00,70.6,68.8,29.87,South,170,4.0,4.0,94,0.00,,,1.61,11,Wunderground v.1.15,2013-09-08 12:10:00,
2013-09-08 07:15:00,70.7,68.9,29.87,South,170,3.0,4.0,94,0.00,,,1.61,14,Wunderground v.1.15,2013-09-08 12:15:00,
2013-09-08 07:20:00,70.7,68.9,29.87,South,170,2.0,3.0,94,0.00,,,1.61,18,Wunderground v.1.15,2013-09-08 12:20:00,
2013-09-08 07:30:00,70.6,68.8,29.88,South,170,3.0,3.0,94,0.00,,,1.61,26,Wunderground v.1.15,2013-09-08 12:30:00,
2013-09-08 07:35:00,70.6,68.8,29.89,South,170,1.0,3.0,94,0.00,,,1.61,25,Wunderground v.1.15,2013-09-08 12:35:00,
2013-09-08 07:40:00,70.6,68.8,29.89,South,170,2.0,4.0,94,0.00,,,1.61,18,Wunderground v.1.15,2013-09-08 12:40:00,
2013-09-08 07:45:00,70.6,68.8,29.89,South,170,3.0,5.0,94,0.00,,,1.61,19,Wunderground v.1.15,2013-09-08 12:45:00,
2013-09-08 07:50:00,70.7,68.9,29.89,South,170,3.0,3.0,94,0.00,,,1.61,23,Wunderground v.1.15,2013-09-08 12:50:00,
2013-09-08 07:55:00,70.7,69.2,29.90,South,170,3.0,3.0,95,0.00,,,1.61,25,Wunderground v.1.15,2013-09-08 12:55:00,
2013-09-08 08:05:00,70.7,68.9,29.91,South,170,2.0,3.0,94,0.00,,,1.61,44,Wunderground v.1.15,2013-09-08 13:05:00,
2013-09-08 08:10:00,70.7,69.2,29.92,South,170,2.0,2.0,95,0.00,,,1.61,56,Wunderground v.1.15,2013-09-08 13:10:00,
2013-09-08 08:15:00,70.8,69.3,29.92,South,169,2.0,3.0,95,0.00,,,1.61,67,Wunderground v.1.15,2013-09-08 13:15:00,
2013-09-08 08:20:00,70.8,69.3,29.91,SE,141,2.0,3.0,95,0.00,,,1.61,88,Wunderground v.1.15,2013-09-08 13:20:00,
2013-09-08 08:25:00,70.9,69.4,29.92,ESE,115,3.0,3.0,95,0.00,,,1.61,95,Wunderground v.1.15,2013-09-08 13:25:00,
2013-09-08 08:35:00,71.0,69.5,29.92,ESE,109,3.0,3.0,95,0.00,,,1.61,113,Wunderground v.1.15,2013-09-08 13:35:00,
2013-09-08 08:40:00,71.0,69.5,29.92,ESE,104,3.0,3.0,95,0.00,,,1.61,111,Wunderground v.1.15,2013-09-08 13:40:00,
2013-09-08 08:45:00,71.0,69.5,29.92,East,96,3.0,4.0,95,0.00,,,1.61,120,Wunderground v.1.15,2013-09-08 13:45:00,
2013-09-08 08:50:00,71.1,69.6,29.92,East,84,3.0,4.0,95,0.00,,,1.61,142,Wunderground v.1.15,2013-09-08 13:50:00,
2013-09-08 08:55:00,71.2,69.7,29.92,East,82,4.0,5.0,95,0.00,,,1.61,167,Wunderground v.1.15,2013-09-08 13:55:00,
2013-09-08 09:00:00,71.4,69.9,29.92,ENE,77,4.0,4.0,95,0.00,,,1.61,199,Wunderground v.1.15,2013-09-08 14:00:00,
2013-09-08 09:05:00,71.6,70.1,29.92,East,79,4.0,4.0,95,0.00,,,1.61,223,Wunderground v.1.15,2013-09-08 14:05:00,
2013-09-08 09:10:00,71.7,70.2,29.92,East,89,5.0,6.0,95,0.00,,,1.61,237,Wunderground v.1.15,2013-09-08 14:10:00,
2013-09-08 09:15:00,71.9,70.1,29.92,East,96,5.0,9.0,94,0.00,,,1.61,225,Wunderground v.1.15,2013-09-08 14:15:00,
2013-09-08 09:20:00,72.1,70.3,29.93,East,88,6.0,7.0,94,0.00,,,1.61,241,Wunderground v.1.15,2013-09-08 14:20:00,
2013-09-08 09:25:00,72.3,70.5,29.93,East,88,5.0,7.0,94,0.00,,,1.61,227,Wunderground v.1.15,2013-09-08 14:25:00,
2013-09-08 09:30:00,72.5,70.4,29.92,East,94,6.0,6.0,93,0.00,,,1.61,278,Wunderground v.1.15,2013-09-08 14:30:00,
2013-09-08 09:40:00,73.0,70.9,29.92,ESE,106,8.0,11.0,93,0.00,,,1.61,406,Wunderground v.1.15,2013-09-08 14:40:00,
2013-09-08 09:45:00,73.2,71.1,29.92,ESE,105,8.0,11.0,93,0.00,,,1.61,343,Wunderground v.1.15,2013-09-08 14:45:00,
2013-09-08 09:50:00,73.4,70.9,29.92,ESE,113,7.0,10.0,92,0.00,,,1.61,316,Wunderground v.1.15,2013-09-08 14:50:00,
2013-09-08 09:55:00,73.5,71.0,29.92,East,95,6.0,10.0,92,0.00,,,1.61,330,Wunderground v.1.15,2013-09-08 14:55:00,
2013-09-08 10:00:00,73.6,71.1,29.92,East,98,6.0,6.0,92,0.00,,,1.61,292,Wunderground v.1.15,2013-09-08 15:00:00,
2013-09-08 10:05:00,73.6,70.8,29.92,East,99,6.0,6.0,91,0.00,,,1.61,260,Wunderground v.1.15,2013-09-08 15:05:00,
2013-09-08 10:15:00,73.9,71.1,29.92,ESE,115,7.0,9.0,91,0.00,,,1.61,318,Wunderground v.1.15,2013-09-08 15:15:00,
2013-09-08 10:20:00,74.2,71.4,29.92,ESE,116,7.0,9.0,91,0.00,,,1.61,357,Wunderground v.1.15,2013-09-08 15:20:00,
2013-09-08 10:25:00,74.6,71.5,29.92,ESE,104,7.0,12.0,90,0.00,,,1.61,380,Wunderground v.1.15,2013-09-08 15:25:00,
2013-09-08 10:30:00,75.1,72.0,29.92,ESE,115,8.0,9.0,90,0.00,,,1.61,408,Wunderground v.1.15,2013-09-08 15:30:00,
2013-09-08 10:35:00,75.5,72.0,29.92,SE,126,8.0,10.0,89,0.00,,,1.61,599,Wunderground v.1.15,2013-09-08 15:35:00,
2013-09-08 10:45:00,76.3,71.8,29.92,ESE,118,9.0,9.0,86,0.00,,,1.61,508,Wunderground v.1.15,2013-09-08 15:45:00,
2013-09-08 10:50:00,76.6,71.7,29.93,SSE,150,9.0,9.0,85,0.00,,,1.61,599,Wunderground v.1.15,2013-09-08 15:50:00,
2013-09-08 10:55:00,76.8,71.9,29.92,SE,146,8.0,9.0,85,0.00,,,1.61,603,Wunderground v.1.15,2013-09-08 15:55:00,
2013-09-08 11:00:00,77.4,72.9,29.92,SSE,150,6.0,6.0,86,0.00,,,1.61,675,Wunderground v.1.15,2013-09-08 16:00:00,
2013-09-08 11:05:00,77.8,72.2,29.92,SE,143,7.0,10.0,83,0.00,,,1.61,596,Wunderground v.1.15,2013-09-08 16:05:00,
2013-09-08 11:10:00,78.1,72.2,29.92,SE,138,8.0,10.0,82,0.00,,,1.61,666,Wunderground v.1.15,2013-09-08 16:10:00,
2013-09-08 11:20:00,78.8,72.8,29.92,South,175,7.0,7.0,82,0.00,,,1.61,763,Wunderground v.1.15,2013-09-08 16:20:00,
2013-09-08 11:25:00,79.0,71.9,29.92,SE,145,7.0,7.0,79,0.00,,,1.61,524,Wunderground v.1.15,2013-09-08 16:25:00,
2013-09-08 11:30:00,79.1,72.8,29.92,SE,140,6.0,6.0,81,0.00,,,1.61,410,Wunderground v.1.15,2013-09-08 16:30:00,
2013-09-08 11:35:00,79.0,72.3,29.92,SSW,198,7.0,8.0,80,0.00,,,1.61,494,Wunderground v.1.15,2013-09-08 16:35:00,
2013-09-08 11:40:00,79.0,72.7,29.92,SE,128,7.0,12.0,81,0.00,,,1.61,605,Wunderground v.1.15,2013-09-08 16:40:00,
2013-09-08 11:50:00,79.5,73.2,29.92,SE,145,6.0,6.0,81,0.00,,,1.61,805,Wunderground v.1.15,2013-09-08 16:50:00,
2013-09-08 11:55:00,79.8,73.1,29.92,SSE,150,5.0,6.0,80,0.00,,,1.61,485,Wunderground v.1.15,2013-09-08 16:55:00,
2013-09-08 12:00:00,79.9,72.4,29.92,SE,136,4.0,4.0,78,0.00,,,1.61,448,Wunderground v.1.15,2013-09-08 17:00:00,
2013-09-08 12:05:00,80.0,72.9,29.92,SSE,166,4.0,5.0,79,0.00,,,1.61,425,Wunderground v.1.15,2013-09-08 17:05:00,
2013-09-08 12:10:00,80.1,73.0,29.92,SE,140,5.0,5.0,79,0.00,,,1.61,772,Wunderground v.1.15,2013-09-08 17:10:00,
2013-09-08 12:15:00,80.2,72.7,29.92,SE,128,5.0,7.0,78,0.00,,,1.61,573,Wunderground v.1.15,2013-09-08 17:15:00,
2013-09-08 12:25:00,81.1,74.3,29.91,SE,132,4.0,5.0,80,0.00,,,1.61,555,Wunderground v.1.15,2013-09-08 17:25:00,
2013-09-08 12:30:00,81.5,74.4,29.91,SE,131,3.0,4.0,79,0.00,,,1.61,520,Wunderground v.1.15,2013-09-08 17:30:00,
2013-09-08 12:35:00,81.5,72.8,29.91,ESE,117,4.0,5.0,75,0.00,,,1.61,422,Wunderground v.1.15,2013-09-08 17:35:00,
2013-09-08 12:40:00,81.2,72.9,29.91,SE,124,5.0,5.0,76,0.00,,,1.61,538,Wunderground v.1.15,2013-09-08 17:40:00,
2013-09-08 12:45:00,81.1,73.2,29.91,East,86,5.0,6.0,77,0.00,,,1.61,631,Wunderground v.1.15,2013-09-08 17:45:00,
2013-09-08 12:55:00,81.3,73.0,29.90,ESE,105,6.0,7.0,76,0.00,,,1.61,962,Wunderground v.1.15,2013-09-08 17:55:00,
2013-09-08 13:00:00,81.5,73.6,29.90,ESE,111,5.0,6.0,77,0.00,,,1.61,598,Wunderground v.1.15,2013-09-08 18:00:00,
2013-09-08 13:05:00,81.7,73.8,29.90,ESE,107,5.0,6.0,77,0.00,,,1.61,659,Wunderground v.1.15,2013-09-08 18:05:00,
2013-09-08 13:10:00,81.8,73.1,29.90,ESE,111,6.0,6.0,75,0.00,,,1.61,541,Wunderground v.1.15,2013-09-08 18:10:00,
2013-09-08 13:15:00,81.6,73.3,29.90,ESE,117,6.0,6.0,76,0.00,,,1.61,761,Wunderground v.1.15,2013-09-08 18:15:00,
2013-09-08 13:20:00,81.8,73.9,29.90,East,98,7.0,7.0,77,0.00,,,1.61,814,Wunderground v.1.15,2013-09-08 18:20:00,
2013-09-08 13:30:00,82.0,73.3,29.90,ESE,111,5.0,5.0,75,0.00,,,1.61,953,Wunderground v.1.15,2013-09-08 18:30:00,
2013-09-08 13:35:00,82.3,74.0,29.89,ESE,119,5.0,7.0,76,0.00,,,1.61,954,Wunderground v.1.15,2013-09-08 18:35:00,
2013-09-08 13:40:00,82.5,73.4,29.89,ESE,107,6.0,9.0,74,0.00,,,1.61,858,Wunderground v.1.15,2013-09-08 18:40:00,
2013-09-08 13:45:00,82.5,73.8,29.89,ESE,116,8.0,9.0,75,0.00,,,1.61,775,Wunderground v.1.15,2013-09-08 18:45:00,
2013-09-08 13:50:00,82.4,74.1,29.89,East,101,8.0,8.0,76,0.00,,,1.61,759,Wunderground v.1.15,2013-09-08 18:50:00,
2013-09-08 14:00:00,82.6,73.5,29.89,ESE,113,6.0,6.0,74,0.00,,,1.61,800,Wunderground v.1.15,2013-09-08 19:00:00,
2013-09-08 14:05:00,82.7,74.0,29.89,ESE,105,6.0,9.0,75,0.00,,,1.61,679,Wunderground v.1.15,2013-09-08 19:05:00,
2013-09-08 14:10:00,82.6,73.5,29.88,ESE,105,6.0,6.0,74,0.00,,,1.61,631,Wunderground v.1.15,2013-09-08 19:10:00,
2013-09-08 14:15:00,82.6,73.5,29.88,ESE,115,7.0,7.0,74,0.00,,,1.61,752,Wunderground v.1.15,2013-09-08 19:15:00,
2013-09-08 14:20:00,82.6,73.1,29.88,ESE,106,7.0,7.0,73,0.00,,,1.61,719,Wunderground v.1.15,2013-09-08 19:20:00,
2013-09-08 14:25:00,82.9,73.8,29.88,ESE,110,5.0,7.0,74,0.00,,,1.61,742,Wunderground v.1.15,2013-09-08 19:25:00,
2013-09-08 14:35:00,83.4,74.6,29.88,East,98,5.0,8.0,75,0.00,,,1.61,802,Wunderground v.1.15,2013-09-08 19:35:00,
2013-09-08 14:40:00,83.4,73.8,29.88,ESE,107,6.0,6.0,73,0.00,,,1.61,279,Wunderground v.1.15,2013-09-08 19:40:00,
2013-09-08 14:45:00,83.2,74.4,29.88,ESE,113,6.0,6.0,75,0.00,,,1.61,362,Wunderground v.1.15,2013-09-08 19:45:00,
2013-09-08 14:50:00,83.4,73.8,29.88,ESE,123,6.0,6.0,73,0.00,,,1.61,473,Wunderground v.1.15,2013-09-08 19:50:00,
2013-09-08 14:55:00,83.6,73.6,29.87,ESE,104,5.0,6.0,72,0.00,,,1.61,701,Wunderground v.1.15,2013-09-08 19:55:00,
2013-09-08 15:05:00,83.6,74.0,29.87,East,98,7.0,9.0,73,0.00,,,1.61,258,Wunderground v.1.15,2013-09-08 20:05:00,
2013-09-08 15:15:00,83.0,73.9,29.87,East,101,7.0,7.0,74,0.00,,,1.61,267,Wunderground v.1.15,2013-09-08 20:15:00,
2013-09-08 15:20:00,83.2,74.8,29.87,ESE,103,6.0,6.0,76,0.00,,,1.61,636,Wunderground v.1.15,2013-09-08 20:20:00,
2013-09-08 15:25:00,83.6,73.6,29.86,ESE,105,6.0,7.0,72,0.00,,,1.61,622,Wunderground v.1.15,2013-09-08 20:25:00,
2013-09-08 15:30:00,83.9,74.3,29.86,ESE,119,8.0,8.0,73,0.00,,,1.61,582,Wunderground v.1.15,2013-09-08 20:30:00,
2013-09-08 15:35:00,84.0,75.2,29.86,SE,125,8.0,10.0,75,0.00,,,1.61,577,Wunderground v.1.15,2013-09-08 20:35:00,
2013-09-08 15:40:00,84.1,74.5,29.86,ESE,121,8.0,8.0,73,0.00,,,1.61,568,Wunderground v.1.15,2013-09-08 20:40:00,
2013-09-08 15:45:00,84.1,74.1,29.85,SE,124,7.0,8.0,72,0.00,,,1.61,573,Wunderground v.1.15,2013-09-08 20:45:00,
2013-09-08 15:50:00,84.4,74.0,29.85,SE,144,6.0,6.0,71,0.00,,,1.61,594,Wunderground v.1.15,2013-09-08 20:50:00,
2013-09-08 15:55:00,84.5,74.5,29.86,SE,132,6.0,7.0,72,0.00,,,1.61,336,Wunderground v.1.15,2013-09-08 20:55:00,
2013-09-08 16:00:00,84.3,73.9,29.86,SE,127,7.0,7.0,71,0.00,,,1.61,258,Wunderground v.1.15,2013-09-08 21:00:00,
2013-09-08 16:10:00,84.4,74.8,29.86,ESE,123,7.0,10.0,73,0.00,,,1.61,234,Wunderground v.1.15,2013-09-08 21:10:00,
2013-09-08 16:15:00,84.0,74.4,29.85,ESE,118,7.0,10.0,73,0.00,,,1.61,278,Wunderground v.1.15,2013-09-08 21:15:00,
2013-09-08 16:20:00,83.8,74.2,29.86,ESE,121,7.0,7.0,73,0.00,,,1.61,223,Wunderground v.1.15,2013-09-08 21:20:00,
2013-09-08 16:25:00,83.6,74.0,29.86,ESE,121,7.0,7.0,73,0.00,,,1.61,290,Wunderground v.1.15,2013-09-08 21:25:00,
2013-09-08 16:30:00,83.5,73.9,29.86,ESE,120,6.0,8.0,73,0.00,,,1.61,534,Wunderground v.1.15,2013-09-08 21:30:00,
2013-09-08 16:35:00,83.7,73.7,29.86,ESE,121,7.0,9.0,72,0.00,,,1.61,459,Wunderground v.1.15,2013-09-08 21:35:00,
2013-09-08 16:40:00,83.8,74.2,29.86,ESE,119,7.0,7.0,73,0.00,,,1.61,257,Wunderground v.1.15,2013-09-08 21:40:00,
2013-09-08 16:45:00,83.8,74.6,29.86,ESE,119,6.0,7.0,74,0.00,,,1.61,193,Wunderground v.1.15,2013-09-08 21:45:00,
2013-09-08 16:50:00,83.7,74.5,29.86,ESE,119,5.0,5.0,74,0.00,,,1.61,236,Wunderground v.1.15,2013-09-08 21:50:00,
2013-09-08 16:55:00,83.6,74.4,29.86,SE,126,5.0,6.0,74,0.00,,,1.61,427,Wunderground v.1.15,2013-09-08 21:55:00,
2013-09-08 17:00:00,83.6,74.8,29.86,ESE,120,6.0,6.0,75,0.00,,,1.61,172,Wunderground v.1.15,2013-09-08 22:00:00,
2013-09-08 17:10:00,83.4,75.0,29.86,SE,126,5.0,5.0,76,0.00,,,1.61,149,Wunderground v.1.15,2013-09-08 22:10:00,
2013-09-08 17:20:00,82.9,74.2,29.86,SE,129,5.0,5.0,75,0.00,,,1.61,178,Wunderground v.1.15,2013-09-08 22:20:00,
2013-09-08 17:25:00,82.8,74.8,29.85,SE,132,4.0,5.0,77,0.00,,,1.61,192,Wunderground v.1.15,2013-09-08 22:25:00,
2013-09-08 17:30:00,82.8,74.8,29.85,SE,133,4.0,4.0,77,0.00,,,1.61,271,Wunderground v.1.15,2013-09-08 22:30:00,
2013-09-08 17:35:00,82.8,74.5,29.86,SE,145,4.0,5.0,76,0.00,,,1.61,218,Wunderground v.1.15,2013-09-08 22:35:00,
2013-09-08 17:40:00,82.7,74.4,29.86,SSE,149,5.0,5.0,76,0.00,,,1.61,142,Wunderground v.1.15,2013-09-08 22:40:00,
2013-09-08 17:45:00,82.7,74.8,29.86,SSE,149,4.0,5.0,77,0.00,,,1.61,141,Wunderground v.1.15,2013-09-08 22:45:00,
2013-09-08 17:50:00,82.6,75.0,29.86,SSE,153,3.0,4.0,78,0.00,,,1.61,216,Wunderground v.1.15,2013-09-08 22:50:00,
2013-09-08 17:55:00,82.6,75.0,29.86,SSE,157,3.0,4.0,78,0.00,,,1.61,213,Wunderground v.1.15,2013-09-08 22:55:00,
2013-09-08 18:00:00,82.6,75.0,29.86,SSE,163,3.0,7.0,78,0.00,,,1.61,186,Wunderground v.1.15,2013-09-08 23:00:00,
2013-09-08 18:10:00,82.5,74.9,29.87,South,172,4.0,4.0,78,0.00,,,1.61,139,Wunderground v.1.15,2013-09-08 23:10:00,
2013-09-08 18:15:00,82.3,74.7,29.87,South,173,4.0,5.0,78,0.00,,,1.61,128,Wunderground v.1.15,2013-09-08 23:15:00,
2013-09-08 18:25:00,81.9,74.7,29.86,South,173,3.0,3.0,79,0.00,,,1.61,100,Wunderground v.1.15,2013-09-08 23:25:00,
2013-09-08 18:30:00,81.7,74.5,29.87,South,173,3.0,3.0,79,0.00,,,1.61,83,Wunderground v.1.15,2013-09-08 23:30:00,
2013-09-08 18:35:00,81.4,74.3,29.87,South,173,3.0,3.0,79,0.00,,,1.61,72,Wunderground v.1.15,2013-09-08 23:35:00,
2013-09-08 18:40:00,81.2,74.1,29.87,South,173,3.0,3.0,79,0.00,,,1.61,56,Wunderground v.1.15,2013-09-08 23:40:00,
2013-09-08 18:45:00,81.1,74.0,29.86,South,173,3.0,3.0,79,0.00,,,1.61,46,Wunderground v.1.15,2013-09-08 23:45:00,
2013-09-08 18:50:00,80.8,74.0,29.86,South,173,2.0,2.0,80,0.00,,,1.61,37,Wunderground v.1.15,2013-09-08 23:50:00,
2013-09-08 18:55:00,80.6,73.9,29.86,South,173,2.0,2.0,80,0.00,,,1.61,30,Wunderground v.1.15,2013-09-08 23:55:00,
2013-09-08 19:00:00,80.3,73.6,29.86,South,173,3.0,3.0,80,0.00,,,1.61,23,Wunderground v.1.15,2013-09-09 00:00:00,
2013-09-08 19:10:00,79.8,73.4,29.86,South,173,3.0,3.0,81,0.00,,,1.61,12,Wunderground v.1.15,2013-09-09 00:10:00,
2013-09-08 19:15:00,79.5,73.2,29.86,South,173,3.0,3.0,81,0.00,,,1.61,9,Wunderground v.1.15,2013-09-09 00:15:00,
2013-09-08 19:20:00,79.2,73.2,29.85,South,173,3.0,3.0,82,0.00,,,1.61,5,Wunderground v.1.15,2013-09-09 00:20:00,
2013-09-08 19:30:00,78.5,73.3,29.86,South,173,2.0,2.0,84,0.00,,,1.61,0,Wunderground v.1.15,2013-09-09 00:30:00,
2013-09-08 19:35:00,78.2,73.0,29.86,South,173,1.0,2.0,84,0.00,,,1.61,0,Wunderground v.1.15,2013-09-09 00:35:00,
2013-09-08 19:40:00,77.9,73.0,29.86,South,173,0.0,0.0,85,0.00,,,1.61,0,Wunderground v.1.15,2013-09-09 00:40:00,
2013-09-08 19:45:00,77.6,72.7,29.86,South,173,0.0,0.0,85,0.00,,,1.61,0,Wunderground v.1.15,2013-09-09 00:45:00,
2013-09-08 19:50:00,77.3,72.4,29.86,South,173,0.0,0.0,85,0.00,,,1.61,0,Wunderground v.1.15,2013-09-09 00:50:00,
2013-09-08 20:00:00,76.6,72.1,29.86,South,173,1.0,1.0,86,0.00,,,1.61,0,Wunderground v.1.15,2013-09-09 01:00:00,
2013-09-08 20:05:00,76.4,72.2,29.86,South,173,1.0,1.0,87,0.00,,,1.61,0,Wunderground v.1.15,2013-09-09 01:05:00,
2013-09-08 20:10:00,76.1,72.3,29.86,South,173,0.0,0.0,88,0.00,,,1.61,0,Wunderground v.1.15,2013-09-09 01:10:00,
2013-09-08 20:15:00,75.8,72.0,29.86,South,173,0.0,0.0,88,0.00,,,1.61,0,Wunderground v.1.15,2013-09-09 01:15:00,
2013-09-08 20:20:00,75.6,72.1,29.87,South,173,0.0,0.0,89,0.00,,,1.61,0,Wunderground v.1.15,2013-09-09 01:20:00,
2013-09-08 20:25:00,75.3,71.8,29.87,South,173,0.0,0.0,89,0.00,,,1.61,0,Wunderground v.1.15,2013-09-09 01:25:00,
2013-09-08 20:35:00,74.8,71.7,29.87,South,173,0.0,0.0,90,0.00,,,1.61,0,Wunderground v.1.15,2013-09-09 01:35:00,
2013-09-08 20:40:00,74.5,71.4,29.87,South,173,0.0,0.0,90,0.00,,,1.61,0,Wunderground v.1.15,2013-09-09 01:40:00,
2013-09-08 20:45:00,74.2,71.4,29.87,South,173,0.0,0.0,91,0.00,,,1.61,0,Wunderground v.1.15,2013-09-09 01:45:00,
2013-09-08 20:50:00,74.0,71.2,29.87,South,173,0.0,0.0,91,0.00,,,1.61,0,Wunderground v.1.15,2013-09-09 01:50:00,
2013-09-08 20:55:00,73.9,71.1,29.87,South,173,0.0,0.0,91,0.00,,,1.61,0,Wunderground v.1.15,2013-09-09 01:55:00,
2013-09-08 21:05:00,73.7,71.2,29.87,South,173,0.0,0.0,92,0.00,,,1.61,0,Wunderground v.1.15,2013-09-09 02:05:00,
2013-09-08 21:10:00,73.6,71.1,29.87,South,173,0.0,0.0,92,0.00,,,1.61,0,Wunderground v.1.15,2013-09-09 02:10:00,
2013-09-08 21:15:00,73.6,71.4,29.87,South,173,0.0,0.0,93,0.00,,,1.61,0,Wunderground v.1.15,2013-09-09 02:15:00,
2013-09-08 21:20:00,73.6,71.4,29.87,South,173,0.0,2.0,93,0.00,,,1.61,0,Wunderground v.1.15,2013-09-09 02:20:00,
2013-09-08 21:25:00,73.6,71.4,29.87,South,173,1.0,2.0,93,0.00,,,1.61,0,Wunderground v.1.15,2013-09-09 02:25:00,
2013-09-08 21:30:00,73.6,71.4,29.87,South,173,2.0,2.0,93,0.00,,,1.61,0,Wunderground v.1.15,2013-09-09 02:30:00,
2013-09-08 21:40:00,73.5,71.4,29.87,South,173,1.0,1.0,93,0.00,,,1.61,0,Wunderground v.1.15,2013-09-09 02:40:00,
2013-09-08 21:45:00,73.5,71.4,29.87,South,173,2.0,2.0,93,0.00,,,1.61,0,Wunderground v.1.15,2013-09-09 02:45:00,
2013-09-08 21:50:00,73.5,71.4,29.87,South,173,2.0,2.0,93,0.00,,,1.61,0,Wunderground v.1.15,2013-09-09 02:50:00,
2013-09-08 21:55:00,73.5,71.4,29.87,South,173,2.0,2.0,93,0.00,,,1.61,0,Wunderground v.1.15,2013-09-09 02:55:00,
2013-09-08 22:00:00,73.4,70.9,29.87,South,173,1.0,1.0,92,0.00,,,1.61,0,Wunderground v.1.15,2013-09-09 03:00:00,
2013-09-08 22:05:00,73.4,70.9,29.87,South,173,1.0,2.0,92,0.00,,,1.61,0,Wunderground v.1.15,2013-09-09 03:05:00,
2013-09-08 22:10:00,73.4,71.3,29.88,South,173,1.0,1.0,93,0.00,,,1.61,0,Wunderground v.1.15,2013-09-09 03:10:00,
2013-09-08 22:15:00,73.3,71.2,29.87,South,173,1.0,2.0,93,0.00,,,1.61,0,Wunderground v.1.15,2013-09-09 03:15:00,
2013-09-08 22:20:00,73.3,71.2,29.88,South,173,1.0,1.0,93,0.00,,,1.61,0,Wunderground v.1.15,2013-09-09 03:20:00,
2013-09-08 22:25:00,73.3,71.2,29.88,South,173,1.0,1.0,93,0.00,,,1.61,0,Wunderground v.1.15,2013-09-09 03:25:00,
2013-09-08 22:30:00,73.2,71.1,29.88,South,173,0.0,0.0,93,0.00,,,1.61,0,Wunderground v.1.15,2013-09-09 03:30:00,
2013-09-08 22:35:00,73.1,71.0,29.88,South,173,0.0,1.0,93,0.00,,,1.61,0,Wunderground v.1.15,2013-09-09 03:35:00,
2013-09-08 22:45:00,72.9,70.8,29.87,South,173,1.0,1.0,93,0.00,,,1.61,0,Wunderground v.1.15,2013-09-09 03:45:00,
2013-09-08 22:50:00,72.8,70.7,29.87,South,173,1.0,1.0,93,0.00,,,1.61,0,Wunderground v.1.15,2013-09-09 03:50:00,
2013-09-08 22:55:00,72.8,70.7,29.87,South,173,1.0,2.0,93,0.00,,,1.61,0,Wunderground v.1.15,2013-09-09 03:55:00,
2013-09-08 23:00:00,72.7,70.6,29.87,South,173,1.0,1.0,93,0.00,,,1.61,0,Wunderground v.1.15,2013-09-09 04:00:00,
2013-09-08 23:05:00,72.7,70.6,29.87,South,173,1.0,1.0,93,0.00,,,1.61,0,Wunderground v.1.15,2013-09-09 04:05:00,
2013-09-08 23:10:00,72.7,70.6,29.87,South,173,1.0,2.0,93,0.00,,,1.61,0,Wunderground v.1.15,2013-09-09 04:10:00,
2013-09-08 23:15:00,72.7,70.6,29.87,South,173,2.0,3.0,93,0.00,,,1.61,0,Wunderground v.1.15,2013-09-09 04:15:00,
2013-09-08 23:20:00,72.7,70.9,29.87,South,173,3.0,4.0,94,0.00,,,1.61,0,Wunderground v.1.15,2013-09-09 04:20:00,
2013-09-08 23:25:00,72.7,70.9,29.87,South,173,3.0,4.0,94,0.00,,,1.61,0,Wunderground v.1.15,2013-09-09 04:25:00,
2013-09-08 23:30:00,72.7,70.9,29.87,South,173,2.0,3.0,94,0.00,,,1.61,0,Wunderground v.1.15,2013-09-09 04:30:00,
2013-09-08 23:35:00,72.7,70.6,29.88,South,173,2.0,3.0,93,0.00,,,1.61,0,Wunderground v.1.15,2013-09-09 04:35:00,
2013-09-08 23:40:00,72.7,70.9,29.88,South,173,2.0,3.0,94,0.00,,,1.61,0,Wunderground v.1.15,2013-09-09 04:40:00,
2013-09-08 23:50:00,72.9,71.1,29.88,South,173,3.0,3.0,94,0.00,,,1.61,0,Wunderground v.1.15,2013-09-09 04:50:00,
2013-09-08 23:55:00,72.9,70.8,29.88,South,173,3.0,3.0,93,0.00,,,1.61,0,Wunderground v.1.15,2013-09-09 04:55:00,